CCM32A LFKJ-LFML

Flight info

Callsign CCM32A
Flight time 0h 40m
Altitude 22000
Route TINOT
Aircraft A320/M-SDE3FGHIRWY/LB1

Departure

Time 2026-04-29 10:07
Airport Ajaccio Napoléon Bonaparte airport (LFKJ)

Arrival

Time 2026-04-29 10:48
Airport Marseille Provence Airport (LFML)
Time Latitude Longitude Altitude Speed Heading
2026-04-29 09:42 41.91901 8.79542 26 ft 0 kts 346°
2026-04-29 10:02 41.91905 8.79541 26 ft 3 kts 346°
2026-04-29 10:02 41.91916 8.79554 30 ft 3 kts 72°
2026-04-29 10:02 41.91910 8.79570 29 ft 3 kts 111°
2026-04-29 10:02 41.91905 8.79598 29 ft 3 kts 88°
2026-04-29 10:03 41.91944 8.79636 30 ft 10 kts 25°
2026-04-29 10:03 41.92005 8.79674 27 ft 9 kts 27°
2026-04-29 10:03 41.92090 8.79727 28 ft 19 kts 23°
2026-04-29 10:03 41.92206 8.79799 27 ft 18 kts 25°
2026-04-29 10:04 41.92314 8.79867 29 ft 17 kts 25°
2026-04-29 10:04 41.92431 8.79940 29 ft 22 kts 25°
2026-04-29 10:04 41.92577 8.80030 27 ft 23 kts 25°
2026-04-29 10:04 41.92719 8.80118 28 ft 22 kts 26°
2026-04-29 10:05 41.92831 8.80231 27 ft 19 kts 47°
2026-04-29 10:05 41.92918 8.80348 29 ft 16 kts 45°
2026-04-29 10:05 41.92964 8.80463 31 ft 13 kts 96°
2026-04-29 10:05 41.92952 8.80569 31 ft 11 kts 66°
2026-04-29 10:06 41.93014 8.80635 31 ft 13 kts 27°
2026-04-29 10:06 41.93095 8.80651 32 ft 11 kts 359°
2026-04-29 10:06 41.93158 8.80668 30 ft 8 kts 51°
2026-04-29 10:06 41.93136 8.80708 32 ft 5 kts 182°
2026-04-29 10:07 41.93076 8.80674 31 ft 27 kts 205°
2026-04-29 10:07 41.92664 8.80416 26 ft 101 kts 205°
2026-04-29 10:07 41.91836 8.79902 76 ft 151 kts 206°
2026-04-29 10:07 41.90886 8.79300 766 ft 151 kts 206°
2026-04-29 10:08 41.89943 8.78681 1451 ft 154 kts 210°
2026-04-29 10:08 41.89027 8.77869 1989 ft 167 kts 217°
2026-04-29 10:08 41.88010 8.76908 2359 ft 190 kts 216°
2026-04-29 10:08 41.86853 8.75829 2720 ft 215 kts 215°
2026-04-29 10:09 41.85544 8.74616 3135 ft 242 kts 213°
2026-04-29 10:09 41.84087 8.73275 3702 ft 262 kts 213°
2026-04-29 10:09 41.82575 8.71880 4616 ft 268 kts 213°
2026-04-29 10:09 41.81030 8.70451 5638 ft 269 kts 214°
2026-04-29 10:10 41.79484 8.69025 6648 ft 271 kts 214°
2026-04-29 10:10 41.77934 8.67625 7574 ft 273 kts 213°
2026-04-29 10:10 41.76346 8.66203 8498 ft 276 kts 213°
2026-04-29 10:10 41.74735 8.64760 9425 ft 279 kts 213°
2026-04-29 10:11 41.73145 8.63220 10291 ft 283 kts 224°
2026-04-29 10:11 41.72073 8.61000 11073 ft 288 kts 252°
2026-04-29 10:11 41.71907 8.58331 11893 ft 293 kts 279°
2026-04-29 10:11 41.72644 8.55789 12548 ft 306 kts 296°
2026-04-29 10:12 41.73709 8.53186 12805 ft 330 kts 298°
2026-04-29 10:12 41.74882 8.50438 13195 ft 346 kts 298°
2026-04-29 10:12 41.76100 8.47623 13907 ft 351 kts 298°
2026-04-29 10:12 41.77330 8.44773 14594 ft 354 kts 298°
2026-04-29 10:13 41.78547 8.41928 15266 ft 358 kts 298°
2026-04-29 10:13 41.79783 8.39006 15953 ft 361 kts 298°
2026-04-29 10:13 41.81022 8.36054 16620 ft 365 kts 297°
2026-04-29 10:13 41.82270 8.33066 17297 ft 368 kts 297°
2026-04-29 10:14 41.83500 8.30077 17918 ft 372 kts 295°
2026-04-29 10:14 41.84526 8.26872 18541 ft 375 kts 291°
2026-04-29 10:14 41.85515 8.23620 19125 ft 378 kts 291°
2026-04-29 10:14 41.86514 8.20339 19697 ft 382 kts 291°
2026-04-29 10:15 41.87522 8.17029 20285 ft 385 kts 291°
2026-04-29 10:15 41.88542 8.13684 20869 ft 388 kts 291°
2026-04-29 10:15 41.89576 8.10287 21463 ft 391 kts 291°
2026-04-29 10:15 41.90595 8.06927 21880 ft 394 kts 291°
2026-04-29 10:16 41.91632 8.03502 21995 ft 397 kts 291°
2026-04-29 10:16 41.92678 8.00039 22009 ft 400 kts 291°
2026-04-29 10:16 41.93717 7.96599 22011 ft 401 kts 291°
2026-04-29 10:16 41.94771 7.93107 22011 ft 402 kts 291°
2026-04-29 10:17 41.95822 7.89616 22006 ft 402 kts 291°
2026-04-29 10:17 41.96858 7.86168 22006 ft 402 kts 291°
2026-04-29 10:17 41.97911 7.82673 22006 ft 402 kts 291°
2026-04-29 10:17 41.98967 7.79169 22007 ft 402 kts 291°
2026-04-29 10:18 42.00017 7.75671 22008 ft 402 kts 291°
2026-04-29 10:18 42.01056 7.72207 22005 ft 402 kts 291°
2026-04-29 10:18 42.02099 7.68716 22004 ft 402 kts 291°
2026-04-29 10:18 42.03147 7.65211 22004 ft 402 kts 291°
2026-04-29 10:19 42.04181 7.61752 22005 ft 402 kts 291°
2026-04-29 10:19 42.05222 7.58259 22010 ft 402 kts 291°
2026-04-29 10:19 42.06264 7.54754 22003 ft 403 kts 290°
2026-04-29 10:19 42.07306 7.51236 22000 ft 403 kts 290°
2026-04-29 10:20 42.08348 7.47713 22000 ft 403 kts 290°
2026-04-29 10:20 42.09377 7.44233 22001 ft 404 kts 290°
2026-04-29 10:20 42.10422 7.40696 22003 ft 404 kts 290°
2026-04-29 10:20 42.11449 7.37218 22004 ft 404 kts 290°
2026-04-29 10:21 42.12490 7.33691 22007 ft 404 kts 290°
2026-04-29 10:21 42.13528 7.30161 22008 ft 404 kts 290°
2026-04-29 10:21 42.14566 7.26629 22013 ft 404 kts 290°
2026-04-29 10:21 42.15603 7.23097 22013 ft 404 kts 290°
2026-04-29 10:22 42.16630 7.19603 22016 ft 404 kts 290°
2026-04-29 10:22 42.17667 7.16070 22015 ft 404 kts 290°
2026-04-29 10:22 42.18703 7.12536 22019 ft 404 kts 290°
2026-04-29 10:22 42.19734 7.09012 22023 ft 404 kts 290°
2026-04-29 10:23 42.20765 7.05481 22023 ft 403 kts 290°
2026-04-29 10:23 42.21779 7.01999 22022 ft 403 kts 290°
2026-04-29 10:23 42.22805 6.98472 22018 ft 403 kts 290°
2026-04-29 10:23 42.23829 6.94947 22021 ft 402 kts 290°
2026-04-29 10:24 42.24852 6.91425 22021 ft 402 kts 290°
2026-04-29 10:24 42.25860 6.87948 22017 ft 402 kts 290°
2026-04-29 10:24 42.26883 6.84409 22017 ft 402 kts 290°
2026-04-29 10:24 42.27899 6.80886 22015 ft 402 kts 289°
2026-04-29 10:25 42.28913 6.77368 22013 ft 402 kts 289°
2026-04-29 10:25 42.29915 6.73882 22007 ft 402 kts 290°
2026-04-29 10:25 42.30930 6.70350 22010 ft 402 kts 289°
2026-04-29 10:25 42.31943 6.66817 22008 ft 402 kts 290°
2026-04-29 10:26 42.32954 6.63290 22007 ft 403 kts 290°
2026-04-29 10:26 42.33967 6.59760 22005 ft 403 kts 290°
2026-04-29 10:26 42.34972 6.56260 22008 ft 403 kts 289°
2026-04-29 10:26 42.35988 6.52712 22014 ft 403 kts 290°
2026-04-29 10:27 42.38002 6.45639 22014 ft 402 kts 289°
2026-04-29 10:27 42.38997 6.42139 22018 ft 402 kts 289°
2026-04-29 10:27 42.40002 6.38611 22020 ft 402 kts 289°
2026-04-29 10:28 42.41010 6.35059 22016 ft 402 kts 289°
2026-04-29 10:28 42.42011 6.31525 22016 ft 402 kts 289°
2026-04-29 10:28 42.43010 6.27990 22012 ft 402 kts 289°
2026-04-29 10:28 42.44000 6.24483 22010 ft 403 kts 289°
2026-04-29 10:29 42.45003 6.20923 22004 ft 403 kts 289°
2026-04-29 10:29 42.46004 6.17369 22019 ft 403 kts 289°
2026-04-29 10:29 42.47000 6.13834 22025 ft 402 kts 289°
2026-04-29 10:29 42.48000 6.10277 22027 ft 402 kts 289°
2026-04-29 10:30 42.48995 6.06735 22031 ft 402 kts 289°
2026-04-29 10:30 42.49980 6.03228 22033 ft 401 kts 289°
2026-04-29 10:30 42.50975 5.99675 22027 ft 402 kts 289°
2026-04-29 10:30 42.51967 5.96129 22029 ft 401 kts 289°
2026-04-29 10:31 42.52958 5.92579 22025 ft 402 kts 288°
2026-04-29 10:31 42.53933 5.89075 22030 ft 401 kts 289°
2026-04-29 10:31 42.54924 5.85516 22014 ft 402 kts 289°
2026-04-29 10:31 42.55901 5.82003 21827 ft 394 kts 289°
2026-04-29 10:32 42.56868 5.78522 21568 ft 391 kts 289°
2026-04-29 10:32 42.57811 5.75127 21308 ft 387 kts 288°
2026-04-29 10:32 42.58760 5.71714 21062 ft 385 kts 289°
2026-04-29 10:32 42.59703 5.68314 20820 ft 383 kts 289°
2026-04-29 10:33 42.60639 5.64922 20567 ft 381 kts 288°
2026-04-29 10:33 42.61564 5.61560 20317 ft 378 kts 288°
2026-04-29 10:33 42.62479 5.58223 20075 ft 376 kts 288°
2026-04-29 10:33 42.63390 5.54890 19797 ft 376 kts 288°
2026-04-29 10:34 42.64289 5.51601 19443 ft 375 kts 289°
2026-04-29 10:34 42.65195 5.48287 19083 ft 372 kts 288°
2026-04-29 10:34 42.66094 5.44989 18732 ft 370 kts 288°
2026-04-29 10:34 42.66986 5.41709 18382 ft 368 kts 288°
2026-04-29 10:35 42.67864 5.38495 17982 ft 366 kts 288°
2026-04-29 10:35 42.68824 5.35295 17592 ft 365 kts 295°
2026-04-29 10:35 42.70211 5.32393 17210 ft 366 kts 307°
2026-04-29 10:35 42.72014 5.29940 16814 ft 367 kts 318°
2026-04-29 10:36 42.74145 5.28006 16196 ft 370 kts 327°
2026-04-29 10:36 42.76357 5.26251 15575 ft 371 kts 327°
2026-04-29 10:36 42.78586 5.24480 14964 ft 371 kts 327°
2026-04-29 10:36 42.80817 5.22706 14366 ft 371 kts 327°
2026-04-29 10:37 42.83059 5.20918 13692 ft 373 kts 327°
2026-04-29 10:37 42.85276 5.19145 12916 ft 376 kts 327°
2026-04-29 10:37 42.87528 5.17339 12135 ft 370 kts 327°
2026-04-29 10:37 42.89707 5.15593 11388 ft 357 kts 327°
2026-04-29 10:38 42.91902 5.14116 10659 ft 349 kts 341°
2026-04-29 10:38 42.94271 5.13567 10382 ft 340 kts 359°
2026-04-29 10:38 42.96577 5.13908 10259 ft 326 kts 14°
2026-04-29 10:38 42.98615 5.14993 10137 ft 313 kts 28°
2026-04-29 10:39 43.00510 5.16374 9922 ft 305 kts 29°
2026-04-29 10:39 43.02370 5.17739 9612 ft 302 kts 29°
2026-04-29 10:39 43.04224 5.19108 9174 ft 301 kts 30°
2026-04-29 10:39 43.06074 5.20478 8505 ft 298 kts 30°
2026-04-29 10:40 43.07858 5.21799 7885 ft 292 kts 29°
2026-04-29 10:40 43.09639 5.23119 7294 ft 288 kts 30°
2026-04-29 10:40 43.11398 5.24425 6724 ft 288 kts 29°
2026-04-29 10:40 43.13139 5.25715 6351 ft 284 kts 29°
2026-04-29 10:41 43.14866 5.26995 5684 ft 279 kts 30°
2026-04-29 10:41 43.16522 5.28223 5534 ft 261 kts 30°
2026-04-29 10:41 43.18076 5.29375 5471 ft 247 kts 30°
2026-04-29 10:41 43.19549 5.30468 5380 ft 238 kts 31°
2026-04-29 10:42 43.20969 5.31523 5286 ft 228 kts 31°
2026-04-29 10:42 43.22375 5.32515 5186 ft 225 kts 23°
2026-04-29 10:42 43.23878 5.32970 5008 ft 221 kts
2026-04-29 10:42 43.25429 5.32951 4559 ft 228 kts
2026-04-29 10:43 43.27007 5.32905 4142 ft 223 kts
2026-04-29 10:43 43.28508 5.32859 3800 ft 208 kts
2026-04-29 10:43 43.29939 5.32820 3572 ft 200 kts
2026-04-29 10:43 43.31286 5.32785 3349 ft 187 kts
2026-04-29 10:44 43.32533 5.32756 3079 ft 176 kts
2026-04-29 10:44 43.33704 5.32728 2851 ft 161 kts
2026-04-29 10:44 43.34785 5.32692 2648 ft 151 kts 359°
2026-04-29 10:44 43.35797 5.32302 2520 ft 152 kts 338°
2026-04-29 10:45 43.36628 5.31401 2382 ft 153 kts 318°
2026-04-29 10:45 43.37383 5.30386 2191 ft 151 kts 316°
2026-04-29 10:45 43.38126 5.29357 1946 ft 151 kts 315°
2026-04-29 10:45 43.38868 5.28323 1655 ft 150 kts 314°
2026-04-29 10:46 43.39588 5.27324 1411 ft 146 kts 314°
2026-04-29 10:46 43.40299 5.26324 1083 ft 147 kts 316°
2026-04-29 10:46 43.40991 5.25328 850 ft 141 kts 310°
2026-04-29 10:46 43.41643 5.24388 643 ft 135 kts 313°
2026-04-29 10:47 43.42291 5.23478 393 ft 131 kts 311°
2026-04-29 10:47 43.42918 5.22579 160 ft 130 kts 312°
2026-04-29 10:47 43.43528 5.21713 37 ft 117 kts 313°
2026-04-29 10:47 43.43982 5.21062 36 ft 70 kts 314°
2026-04-29 10:48 43.44192 5.20771 35 ft 22 kts 329°
2026-04-29 10:48 43.44305 5.20816 37 ft 13 kts 60°
2026-04-29 10:48 43.44301 5.20899 36 ft 8 kts 107°
2026-04-29 10:48 43.44277 5.20968 37 ft 8 kts 122°
2026-04-29 10:49 43.44257 5.21007 37 ft 8 kts 129°
2026-04-29 10:49 43.44191 5.21103 37 ft 15 kts 134°
2026-04-29 10:49 43.44097 5.21237 37 ft 14 kts 134°
2026-04-29 10:49 43.44030 5.21334 37 ft 13 kts 133°
2026-04-29 10:50 43.43967 5.21422 37 ft 13 kts 134°
2026-04-29 10:50 43.43928 5.21478 37 ft 12 kts 130°
2026-04-29 10:50 43.43936 5.21577 36 ft 11 kts 51°
2026-04-29 10:50 43.43981 5.21654 37 ft 10 kts 73°
2026-04-29 10:51 43.43959 5.21733 37 ft 9 kts 131°
2026-04-29 10:51 43.43918 5.21793 37 ft 8 kts 134°
2026-04-29 10:51 43.43858 5.21877 37 ft 16 kts 134°
2026-04-29 10:51 43.43790 5.21976 37 ft 11 kts 130°
2026-04-29 10:52 43.43807 5.22063 37 ft 10 kts 46°
2026-04-29 10:52 43.43856 5.22128 37 ft 9 kts 44°
2026-04-29 10:52 43.43901 5.22186 37 ft 9 kts 38°
2026-04-29 10:52 43.43928 5.22233 37 ft 4 kts 62°
2026-04-29 10:53 43.43934 5.22250 37 ft 1 kts 61°
2026-04-29 10:53 43.43935 5.22250 37 ft 0 kts 61°